This demonstration page uses our WeatherBlox Daily Observations layout. Learn more.

Left ArrowRight Arrow

39.29038, -76.61219

Hourly Observations for May 4, 2020

Temp ( °F °C ) Dew Point ( °F °C ) Humidity (%) Winds ( mph kmh ) Pressure ( in mb ) Visibility ( mi km ) Precip ( " mm )
12:54 am 00:54 undefined 65 18.3 62 16.7 90 90 undefined N/A 29.67 1005 N/A 0.07 1.78
1:54 am 01:54 undefined 64 17.8 62 16.7 93 93 undefined N/A 29.69 1006 N/A 0.01 0.25
2:54 am 02:54 undefined 64 17.8 61 16.1 90 90 undefined N/A 29.67 1005 N/A N/A
3:54 am 03:54 undefined 63 17.2 60 15.6 90 90 undefined N/A 29.66 1004 N/A N/A
4:54 am 04:54 undefined 63 17.2 60 15.6 90 90 undefined N/A 29.67 1005 N/A N/A
5:54 am 05:54 undefined 64 17.8 59 15 84 84 undefined N/A 29.68 1005 N/A N/A
6:54 am 06:54 undefined 64 17.8 58 14.4 81 81 undefined N/A 29.71 1006 N/A N/A
7:54 am 07:54 undefined 67 19.4 54 12.2 63 63 undefined N/A 29.75 1008 N/A N/A
8:54 am 08:54 undefined 69 20.6 50 10 51 51 undefined N/A 29.77 1008 N/A N/A
9:54 am 09:54 undefined 71 21.7 39 3.9 31 31 undefined N/A 29.77 1008 N/A N/A
10:54 am 10:54 undefined 72 22.2 35 1.7 26 26 undefined N/A 29.78 1008 N/A N/A
11:54 am 11:54 undefined 73 22.8 37 2.8 27 27 undefined N/A 29.78 1008 N/A N/A
12:54 pm 12:54 undefined 74 23.3 36 2.2 25 25 undefined N/A 29.77 1008 N/A N/A
1:54 pm 13:54 undefined 72 22.2 35 1.7 26 26 undefined N/A 29.77 1008 N/A N/A
2:54 pm 14:54 undefined 71 21.7 37 2.8 29 29 undefined N/A 29.78 1009 N/A N/A
3:54 pm 15:54 undefined 70 21.1 33 0.6 26 26 undefined N/A 29.79 1009 N/A N/A
4:54 pm 16:54 undefined 71 21.7 34 1.1 26 26 undefined N/A 29.80 1009 N/A N/A
5:54 pm 17:54 undefined 68 20 32 undefined 26 26 undefined N/A 29.81 1009 N/A N/A
6:54 pm 18:54 undefined 66 18.9 31 -0.6 27 27 undefined N/A 29.86 1011 N/A N/A
7:54 pm 19:54 undefined 64 17.8 34 1.1 33 33 undefined N/A 29.89 1012 N/A N/A
8:54 pm 20:54 undefined 63 17.2 34 1.1 34 34 undefined N/A 29.92 1013 N/A N/A
9:54 pm 21:54 undefined 61 16.1 35 1.7 38 38 undefined N/A 29.96 1014 N/A N/A
10:54 pm 22:54 undefined 59 15 35 1.7 41 41 undefined N/A 29.96 1015 N/A N/A
11:54 pm 23:54 undefined 57 13.9 35 1.7 44 44 undefined N/A 29.96 1014 N/A N/A

Powered by AerisWeather